Regional Weather Roundup
Issued by NWS

Home | Current Version | Previous Version | Graphics & Text | Print | Product List | Glossary On
Versions: 1 2 3 4 5 6 7 8 9 10 11 12 13 14 15 16 17 18 19 20 21 22 23 24 25 26 27 28 29 30 31 32 33 34 35 36 37 38 39 40 41 42 43 44 45 46 47 48 49 50
000
ASUS43 KMPX 301010
RWRMN
WEATHER ROUNDUP FOR MINNESOTA
NATIONAL WEATHER SERVICE TWIN CITIES/CHANHASSEN MN
500 AM CDT WED JUL 30 2014


NOTE: "FAIR" INDICATES FEW OR NO CLOUDS BELOW 12,000 FEET WITH NO
SIGNIFICANT WEATHER AND/OR OBSTRUCTIONS TO VISIBILITY. N/A MEANS
CURRENT SKY AND/OR WEATHER CONDITIONS ARE NOT AVAILABLE.

MNZ060>063-068>070-301100-
   Twin Cities Metro

CITY           SKY/WX    TMP DP  RH WIND       PRES   REMARKS
TWIN CITIES    CLEAR     61  56  83 W3        30.07R
ST PAUL        CLEAR     60  59  96 CALM      30.07R
CRYSTAL        CLEAR     60  55  83 W3        30.06R
BLAINE         CLEAR     59  57  94 CALM      30.07S
LAKEVILLE      CLEAR     57  55  94 W5        30.07S
EDEN PRAIRIE   CLEAR     61  57  87 CALM      30.07R
SOUTH ST PAUL  CLEAR     60  57  92 CALM      30.07R
LAKE ELMO      FAIR      54  54 100 CALM      30.07S
$$
MNZ001>005-007-008-013>017-022>024-027-028-301100-
   Northwest Minnesota

CITY           SKY/WX    TMP DP  RH WIND       PRES   REMARKS
BEMIDJI        CLEAR     54  52  95 W5        30.10R
HALLOCK        CLEAR     54  52  94 CALM      30.11R
ROSEAU         CLEAR     57  54  88 W6        30.09S
WARROAD        CLEAR     57  54  88 W6        30.08S
THIEF RVR FALL CLEAR     59  54  82 CALM      30.11S
CROOKSTON      CLEAR     54  52  94 NW3       30.12S
FOSSTON        CLEAR     50  48  93 S3        30.12S
DETROIT LAKES  CLEAR     59  54  82 CALM      30.14R
MOORHEAD       CLEAR     55  55 100 CALM      30.13R
PARK RAPIDS    CLEAR     52  51  97 W3        30.11R
$$
MNZ006-009>011-018-025>026-301100-
   North Central Minnesota

CITY           SKY/WX    TMP DP  RH WIND       PRES   REMARKS
BAUDETTE       CLEAR     58  54  86 VRB5      30.07S
FLAG ISLAND    CLEAR     64  57  77 NW12      30.05S
INTL FALLS     CLEAR     48  47  96 CALM      30.05S
WASKISH        PTCLDY    61  55  82 NW7       30.07S
BIG FORK         N/A     48  48 100 CALM      30.08S
LONGVILLE      CLEAR     54  54 100 CALM      30.08S
GRAND RAPIDS   MOCLDY    54  52  94 CALM      30.08R VSB 1/2
CRANE LAKE     PTCLDY    46  46 100 CALM      30.07S FOG
ORR            PTCLDY    48  46  93 CALM      30.05R FOG
COOK           CLEAR     48  46  93 CALM      30.07S
$$
MNZ012-019>021-037-301100-
   Northeast Minnesota

CITY           SKY/WX    TMP DP  RH WIND       PRES   REMARKS
DULUTH         FOG       51  48  89 CALM      30.08R VSB 1/2
ELY            FOG       48  48 100 CALM      30.07S VSB<1/4
HIBBING        MOCLDY    47  45  93 CALM      30.07S FOG
EVELETH        FOG       45  43  93 CALM      30.08S VSB 1/4
DULUTH HARBOR  CLEAR     55  54  94 CALM      30.08R
TWO HARBORS    CLEAR     48  45  87 CALM      30.05S
SILVER BAY     CLEAR     43  43 100 CALM      30.05S FOG
GRAND MARAIS     N/A     49  47  93 CALM      30.04S
G MARAIS ARPRT CLEAR     39  37  93 CALM      30.06S
$$
MNZ029>031-032-039>041-046>048-054>057-064-301100-
   West Central Minnesota

CITY           SKY/WX    TMP DP  RH WIND       PRES   REMARKS
FERGUS FALLS   CLEAR     55  52  88 N3        30.13S
WHEATON        CLEAR     54  54 100 CALM      30.15R
MORRIS         CLEAR     52  52 100 NW3       30.12R
ALEXANDRIA     CLEAR     59  56  89 NW5       30.13R
ELBOW LAKE     FAIR      56  54  92 NW5       30.13R
WADENA         CLEAR     55  54  94 NW3       30.11S
GLENWOOD       CLEAR     57  55  94 NW3       30.12S
APPLETON       CLEAR     54  52  94 W3        30.12R
BENSON           N/A     52  52 100 CALM      30.12S FOG
ORTONVILLE     CLEAR     57  55  94 NW3       30.13R
MADISON        CLEAR     55  52  88 W6        30.13R
WILLMAR        FAIR      55  52  88 CALM      30.13R
$$
MNZ033>034-036-042>043-049>051-058-059-301100-
   Central Minnesota

CITY           SKY/WX    TMP DP  RH WIND       PRES   REMARKS
ST CLOUD       CLEAR     59  54  83 NW3       30.08S
SAUK CENTRE    FAIR      53  52  95 CALM      30.11S
PAYNESVILLE    CLEAR     51  51 100 SW3       30.11S
AITKIN         CLEAR     54  48  82 CALM      30.07R HAZE
PINE RIVER     CLEAR     52  52 100 CALM      30.12S
BRAINERD       CLEAR     53  53 100 CALM      30.09R
STAPLES        CLEAR     54  52  94 W3        30.10S
LONG PRAIRIE   FAIR      57  52  82 NW3       30.11S
LITTLE FALLS   CLEAR     52  50  93 CALM      30.10R
LITCHFIELD     CLEAR     63  57  82 NW5       30.11R
BUFFALO        CLEAR     60  55  82 CALM      30.09S
MAPLE LAKE     CLEAR     59  56  89 CALM      30.10R
$$
MNZ037-044-045-052-053-301100-
   East Central Minnesota

CITY           SKY/WX    TMP DP  RH WIND       PRES   REMARKS
PRINCETON      CLEAR     54  52  94 CALM      30.08R FOG
MORA           CLEAR     54  52  94 CALM      30.09R FOG
CAMBRIDGE      CLEAR     59  52  77 CALM      30.06R
RUSH CITY      CLOUDY    52  50  95 CALM      30.07S
MOOSE LAKE     FOG       52  52 100 CALM      30.06S VSB 1
HINCKLEY       PTSUNNY   52  52 100 CALM      30.07S
CLOQUET        CLEAR     52  48  87 CALM      30.08R FOG
MCGREGOR         N/A     54  54 100 CALM      30.08S
$$
MNZ071>073-080-081-089-090-097-098-301100-
   Southwest Minnesota

CITY           SKY/WX    TMP DP  RH WIND       PRES   REMARKS
MONTEVIDEO     CLEAR     55  54  94 NW6       30.13R
GRANITE FALLS  PTCLDY    52  51  96 W6        30.14R
CANBY          CLEAR     55  52  88 W6        30.15R
MARSHALL       CLEAR     54  48  82 W5        30.12S
REDWOOD FALLS  CLEAR     56  53  90 NW8       30.11R
OLIVIA         CLEAR     55  52  88 NW3       30.11S
PIPESTONE      CLEAR     55  54  94 CALM      30.15R
WINDOM         CLEAR     54  52  94 W6        30.12F
WORTHINGTON    CLEAR     54  48  82 CALM      30.14S
JACKSON        CLEAR     54  50  87 W3        30.13R
TRACY          CLEAR     58  53  83 W6        30.13S
SLAYTON        CLEAR     53  52  95 CALM      30.15R
$$
MNZ065>067-074>077-082>085-091>093-301100-
   South Central Minnesota

CITY           SKY/WX    TMP DP  RH WIND       PRES   REMARKS
MANKATO        CLEAR     57  50  77 W5        30.09S
NEW ULM        CLEAR     55  55 100 W7        30.10S
ST JAMES       CLEAR     55  52  88 W5        30.12R
FAIRMONT       CLEAR     57  50  77 NW7       30.10S
GLENCOE        CLEAR     58  54  84 NW3       30.09S
FARIBAULT      CLEAR     57  52  82 CALM      30.08S
OWATONNA       CLEAR     54  50  87 CALM      30.08S
WASECA         CLEAR     50  46  87 CALM      30.11R
ALBERT LEA     CLEAR     57  55  94 W3        30.09S
$$
MNZ078>079-086>088-094>096-301100-
   Southeast Minnesota

CITY           SKY/WX    TMP DP  RH WIND       PRES   REMARKS
ROCHESTER      CLEAR     57  54  89 W7        30.08R
RED WING       CLEAR     55  54  94 N3        30.05S FOG
STANTON        CLEAR     57  54  90 CALM      30.06R
DODGE CENTER   CLEAR     55  54  94 W6        30.08S
WINONA         CLEAR     57  55  94 CALM      30.06R
AUSTIN         CLEAR     57  55  94 W7        30.08R
PRESTON        CLEAR     56  56 100 NW5       30.07S
$$
ABBREVIATIONS USED IN REMARKS
   TC - TEMPERATURES IN CELSIUS
  WCI - WIND CHILL INDEX
   HX - HEAT INDEX
  VSB - VISIBILITY
$$


USA.gov is the U.S. government's official web portal to all federal, state and local government web resources and services.